TUSUR GO (RS78S)

Last updated on Fri Dec 19 2025 00:03:12 GMT+0000 (Coordinated Universal Time)

1 61782U 24199AZ 25352.60849308 .00054895 00000+0 85502-3 0 9997 2 61782 97.3172 222.8829 0007089 203.5314 156.5616 15.53685553106575
UTC large
Height (km)
Speed (km/s)
/
Latitude / Longitude
Inclination (degrees)
Orbital Period (minutes)
Azimuth
Elevation
Range (km)
Doppler Factor

Next 0 passes for location: London (51.5072 / 0.1276)

Sorry there are no passes over London.